Regional Weather Roundup
Issued by NWS

Home | Current Version | Previous Version | Graphics & Text | Print | Product List | Glossary On
Versions: 1 2 3 4 5 6 7 8 9 10 11 12 13 14 15 16 17 18 19 20 21 22 23 24 25 26 27 28 29 30 31 32 33 34 35 36 37 38 39 40 41 42 43 44 45 46 47 48 49 50
000
ASUS43 KDMX 050804
RWRIA

WEATHER ROUNDUP FOR IOWA
NATIONAL WEATHER SERVICE DES MOINES IA
  ISSUED BY NWS QUAD CITIES IA IL
200 AM CST THU MAR 05 2015

NOTE: "FAIR" INDICATES FEW OR NO CLOUDS BELOW 12,000 FEET WITH NO
SIGNIFICANT WEATHER AND/OR OBSTRUCTIONS TO VISIBILITY.

* - THESE STATIONS ARE NOT NWS STATIONS...THUS NOT UNDER NWS
QUALITY CONTROL.  THEY ALSO DO NOT REPORT WEATHER SUCH
AS PRECIPITATION OR FOG.

IAZ001>003-012>014-020>022-031>034-043>046-050900-
   NORTHWEST IOWA

CITY           SKY/WX    TMP DP  RH WIND       PRES   REMARKS
CARROLL *      CLEAR      0  -8  71 NW7       30.46R WCI -13
CHEROKEE *     SUNNY     -5 -10  79 CALM      30.46S
DENNISON *     FAIR      -2  -9  71 CALM      30.45R
LE MARS *      CLEAR     -2  -8  78 CALM      30.48R
ORANGE CITY *  CLEAR      0  -8  71 CALM      30.44R
SHELDON *      FAIR      -6 -13  71 NW5       30.43S WCI -17
SIOUX CITY     CLEAR      1  -5  75 CALM      30.49R
SPENCER        CLEAR     -6 -12  75 NW5       30.44R WCI -17
STORM LAKE *   CLEAR     -4 -11  71 NW8       30.44R WCI -19
$$

IAZ055>058-069>071-079>083-090>094-050900-
   SOUTHWEST IOWA

CITY           SKY/WX    TMP DP  RH WIND       PRES   REMARKS
ATLANTIC *     CLEAR      1  -6  71 N5        30.47R WCI  -8
AUDUBON *      CLEAR      0  -8  71 CALM      30.45R
CLARINDA *     CLEAR      7  -2  66 N6        30.51R WCI  -3
COUNCIL BLFS * CLEAR      3  -4  72 NE3       30.46S
CRESTON *      CLEAR      5  -8  56 N8        30.44S WCI  -8
HARLAN *       FAIR      -2  -6  84 NW5       30.50S WCI -12
LAMONI         CLEAR      8   0  69 N10       30.43S WCI  -6
RED OAK *      CLEAR      3  -2  78 N5        30.50R WCI  -6
SHENANDOAH *   CLEAR      3  -2  78 N6        30.51R WCI  -8
$$

IAZ047>049-059>061-072>074-084-050900-
   CENTRAL IOWA

CITY           SKY/WX    TMP DP  RH WIND       PRES   REMARKS
AMES           CLEAR      2  -7  66 N10       30.47R WCI -14
ANKENY *       CLOUDY     5  -4  66 N9        30.48R WCI  -9
BOONE *        CLEAR      1  -6  71 N8        30.44R WCI -12
CHARITON *     FLURRIES  10   3  72 NW12      30.43S WCI  -4
DES MOINES     PTCLDY     7  -2  66 N8        30.47R WCI  -6
GRINNELL *     CLOUDY     2  -5  73 N6        30.45R WCI -10
KNOXVILLE *    CLOUDY     7  -4  61 N9G15     30.45R WCI  -7
MARSHALLTOWN   CLEAR     -5 -10  79 NW9       30.44S WCI -22
NEWTON *       CLOUDY     3  -8  60 N9        30.46R WCI -11
PELLA *        CLOUDY     7  -1  70 N10       30.47R WCI  -7
PERRY *          N/A      2  -3  79 NW6       30.47S WCI  -9
$$

IAZ004>006-015-016-023>025-035-036-050900-
   NORTH CENTRAL IOWA

CITY           SKY/WX    TMP DP  RH WIND       PRES   REMARKS
ALGONA *       CLEAR      0 N/A N/A NW6       30.45S WCI -12
CLARION *      CLEAR     -2  -8  78 NW7       30.45R WCI -16
ESTHERVILLE    CLEAR     -5 -11  75 NW6       30.43R WCI -18
FORT DODGE *   CLEAR      0  -9  65 CALM      30.46R
MASON CITY     CLEAR     -7 -12  79 NW9       30.44R WCI -24
FOREST CITY *  FAIR      -4 -11  71 NW5       30.42S WCI -15
WEBSTER CITY * PTCLDY     0  -8  71 N7        30.44R WCI -13
IOWA FALLS *   FAIR      -5 -11  77 NW8       30.44S WCI -20
$$

IAZ007>011-017>019-026>030-037>042-050>054-066-050900-
   NORTHEAST IOWA

CITY           SKY/WX    TMP DP  RH WIND       PRES   REMARKS
CEDAR RAPIDS   CLEAR     -1  -7  75 NW8       30.43R WCI -15
CHARLES CITY * CLEAR     -6 -13  71 NW9       30.43R WCI -22
CLINTON *      CLEAR      1  -6  71 N7        30.43S WCI -11
DECORAH *      CLEAR     -4 -11  71 NW5       30.39F WCI -15
DUBUQUE        PTCLDY     0  -8  69 N12       30.36F WCI -17
MONTICELLO *   CLEAR     -4 -11  71 W5        30.42S WCI -15
OELWEIN *      CLEAR     -9 -15  77 NW9       30.42R WCI -27
WATERLOO       CLEAR     -4 -10  75 NW7       30.45R WCI -18
$$

IAZ064-065-067-068-078-050900-
   EAST CENTRAL IOWA

CITY           SKY/WX    TMP DP  RH WIND       PRES   REMARKS
DAVENPORT      PTCLDY     5  -3  69 NW8       30.43R WCI  -8
IOWA CITY      CLEAR      6  -4  63 N10       30.46R WCI  -9
MT. PLEASANT * PTCLDY    10   3  72 N13       30.44R WCI  -5
MUSCATINE *    PTCLDY     9   0  66 N12       30.47R WCI  -6
QUAD CITIES    PTCLDY     9  -2  61 N10       30.43R WCI  -5
$$

IAZ062-063-075>077-085>089-095>099-050900-
   SOUTHEAST IOWA

CITY           SKY/WX    TMP DP  RH WIND       PRES   REMARKS
BURLINGTON     CLOUDY    13   3  64 N13       30.42R WCI  -2
FAIRFIELD *    PTCLDY     9  -2  61 N10       30.45R WCI  -6
FORT MADISON * CLOUDY    12   3  67 N12       30.42R WCI  -2
KEOKUK *       CLOUDY    16   7  67 N7G13     30.42R WCI   6
OSKALOOSA *    CLOUDY     7   0  70 N9        30.45R WCI  -6
CENTERVILLE *  FLURRIES  14   9  79 N7        30.43S WCI   4
OTTUMWA        MOCLDY     8  -1  66 N13       30.45R WCI  -8
WASHINGTON *   PTCLDY     9   5  85 N9        30.44S WCI  -5
$$

ABBREVIATIONS USED IN REMARKS
   TC - TEMPERATURES IN CELSIUS
  WCI - WIND CHILL INDEX
   HX - HEAT INDEX
  VSB - VISIBILITY
$$



USA.gov is the U.S. government's official web portal to all federal, state and local government web resources and services.